Marco Island Airport, FL

2:19 AM EDT on July 24, 2017 (GMT -0400)
Marco Island

Weather History for KMKY - February, 2014

Change the Weather History Date:

Sunday, February 2, 2014

  Actual Average (KAPF) Record (KAPF)
Temperature  
Mean Temperature 73 °F -  
Max Temperature 82 °F 78 °F 87 °F (1990)
Min Temperature 64 °F 55 °F 35 °F (1979)
Cooling Degree Days 8    
Growing Degree Days 23 (Base 50)    
Moisture  
Dew Point 67 °F    
Average Humidity 83    
Maximum Humidity 100    
Minimum Humidity 54    
Precipitation  
Precipitation 0.00 in - - ()
Sea Level Pressure  
Sea Level Pressure 30.08 in    
Wind  
Wind Speed 7 mph (ESE)    
Max Wind Speed 16 mph    
Max Gust Speed 17 mph    
Visibility 8 miles    
Events      
Averages and records for this station are not official NWS values.
T = Trace of Precipitation, MM = Missing Value Source: NWS Daily Summary

Daily Weather History Graph

Daily Weather History Graph

Search for Another Location

Airport or City:

Trip Planner

Search our weather history database for the weather conditions in past years. The results will help you decide how hot, cold, wet, or windy it might be!

Date:

Astronomy

Feb. 02, 2014 Rise Set
Actual Time 7:10 AM EST 6:10 PM EST
Civil Twilight 6:46 AM EST 6:34 PM EST
Nautical Twilight 6:18 AM EST 7:02 PM EST
Astronomical Twilight 5:51 AM EST 7:29 PM EST
Moon 8:59 AM EST (2/2) 9:26 PM EST (2/2)
Length of Visible Light 11h 48m
Length of Day
11h 00m
Waxing Crescent, 11% of the Moon is Illuminated
Feb 2
Waxing Crescent
Feb 6
First Quarter
Feb 14
Full
Feb 22
Last Quarter
Mar 1
New

Hourly Weather History & Observations

Time (EST) Temp. Heat Index Dew Point Humidity Pressure Visibility Wind Dir Wind Speed Gust Speed Precip Events Conditions
12:15 AM 66.2 °F - 66.2 °F 100% 30.11 in 10.0 mi East 5.8 mph - N/A   Clear
12:35 AM 66.2 °F - 66.2 °F 100% 30.11 in 10.0 mi ENE 5.8 mph - N/A   Clear
12:55 AM 66.2 °F - 66.2 °F 100% 30.11 in 10.0 mi NE 5.8 mph - N/A   Clear
1:15 AM 66.2 °F - 66.2 °F 100% 30.10 in 10.0 mi ENE 6.9 mph - N/A   Clear
1:35 AM 66.2 °F - 66.2 °F 100% 30.10 in 10.0 mi ENE 6.9 mph - N/A   Clear
1:55 AM 66.2 °F - 66.2 °F 100% 30.10 in 10.0 mi ENE 5.8 mph - N/A   Clear
2:15 AM 66.2 °F - 66.2 °F 100% 30.09 in 10.0 mi East 5.8 mph - N/A   Clear
2:35 AM 66.2 °F - 66.2 °F 100% 30.09 in 9.0 mi East 5.8 mph - N/A   Clear
2:55 AM 66.2 °F - 64.4 °F 94% 30.09 in 10.0 mi NE 5.8 mph - N/A   Clear
3:15 AM 66.2 °F - 64.4 °F 94% 30.09 in 5.0 mi NE 5.8 mph - N/A   Clear
3:35 AM 66.2 °F - 66.2 °F 100% 30.09 in 0.8 mi NE 5.8 mph - N/A   Mostly Cloudy
3:55 AM 66.2 °F - 66.2 °F 100% 30.09 in 0.5 mi NE 5.8 mph - N/A   Overcast
4:15 AM 66.2 °F - 66.2 °F 100% 30.09 in 0.5 mi ENE 4.6 mph - N/A   Overcast
4:35 AM 66.2 °F - 66.2 °F 100% 30.09 in 0.2 mi ENE 4.6 mph - N/A   Mostly Cloudy
4:55 AM 66.2 °F - 64.4 °F 94% 30.09 in 0.2 mi NE 4.6 mph - N/A   Overcast
5:15 AM 66.2 °F - 64.4 °F 94% 30.09 in 0.5 mi ENE 3.5 mph - N/A   Overcast
5:35 AM 66.2 °F - 64.4 °F 94% 30.09 in 0.5 mi ENE 4.6 mph - N/A   Overcast
5:55 AM 66.2 °F - 64.4 °F 94% 30.09 in 0.5 mi ENE 3.5 mph - N/A   Overcast
6:15 AM 64.4 °F - 64.4 °F 100% 30.10 in 0.5 mi ENE 4.6 mph - N/A   Overcast
6:35 AM 64.4 °F - 64.4 °F 100% 30.10 in 1.8 mi East 5.8 mph - N/A   Mostly Cloudy
6:55 AM 64.4 °F - 64.4 °F 100% 30.11 in 0.5 mi East 4.6 mph - N/A   Mostly Cloudy
7:15 AM 64.4 °F - 64.4 °F 100% 30.11 in 0.2 mi East 3.5 mph - N/A   Overcast
7:35 AM 64.4 °F - 62.6 °F 94% 30.12 in 0.2 mi East 4.6 mph - N/A   Overcast
7:55 AM 64.4 °F - 64.4 °F 100% 30.12 in 0.2 mi East 4.6 mph - N/A   Overcast
8:15 AM 66.2 °F - 64.4 °F 94% 30.12 in 0.2 mi East 5.8 mph - N/A   Overcast
8:35 AM 68.0 °F - 68.0 °F 100% 30.13 in 7.0 mi ESE 5.8 mph - N/A   Partly Cloudy
8:55 AM 69.8 °F - 68.0 °F 94% 30.13 in 10.0 mi ESE 6.9 mph - N/A   Clear
9:15 AM 71.6 °F - 71.6 °F 100% 30.14 in 10.0 mi ESE 8.1 mph - N/A   Clear
9:35 AM 73.4 °F - 71.6 °F 94% 30.14 in 10.0 mi ESE 9.2 mph - N/A   Clear
9:55 AM 75.2 °F - 71.6 °F 89% 30.14 in 10.0 mi SE 11.5 mph - N/A   Clear
10:15 AM 77.0 °F - 71.6 °F 83% 30.14 in 10.0 mi ESE 11.5 mph - N/A   Clear
10:35 AM 78.8 °F - 71.6 °F 78% 30.14 in 10.0 mi SE 16.1 mph - N/A   Partly Cloudy
10:55 AM 78.8 °F - 69.8 °F 74% 30.14 in 10.0 mi ESE 13.8 mph 17.3 mph N/A   Clear
11:15 AM 80.6 °F 83.2 °F 68.0 °F 65% 30.13 in 10.0 mi SSE 11.5 mph - N/A   Clear
11:35 AM 80.6 °F 83.2 °F 68.0 °F 65% 30.12 in 10.0 mi SE 10.4 mph - N/A   Partly Cloudy
11:55 AM 80.6 °F 83.2 °F 68.0 °F 65% 30.12 in 10.0 mi ESE 10.4 mph - N/A   Clear
12:15 PM 80.6 °F 83.2 °F 68.0 °F 65% 30.11 in 10.0 mi SSE 6.9 mph - N/A   Partly Cloudy
12:35 PM 82.4 °F 86.3 °F 69.8 °F 66% 30.09 in 10.0 mi South 10.4 mph - N/A   Partly Cloudy
12:55 PM 82.4 °F 86.3 °F 69.8 °F 66% 30.09 in 10.0 mi SSE 15.0 mph - N/A   Partly Cloudy
1:15 PM 82.4 °F 85.4 °F 68.0 °F 62% 30.08 in 10.0 mi SSE 10.4 mph 16.1 mph N/A   Clear
1:35 PM 82.4 °F 85.4 °F 68.0 °F 62% 30.06 in 10.0 mi SSE 9.2 mph - N/A   Clear
1:55 PM 82.4 °F 84.6 °F 66.2 °F 58% 30.05 in 10.0 mi SSE 10.4 mph - N/A   Clear
2:15 PM 82.4 °F 83.9 °F 64.4 °F 54% 30.05 in 10.0 mi SSE 12.7 mph - N/A   Clear
2:35 PM 82.4 °F 83.9 °F 64.4 °F 54% 30.04 in 10.0 mi South 8.1 mph - N/A   Clear
2:55 PM 82.4 °F 83.9 °F 64.4 °F 54% 30.04 in 10.0 mi SSE 8.1 mph - N/A   Clear
3:15 PM 82.4 °F 84.6 °F 66.2 °F 58% 30.04 in 10.0 mi South 9.2 mph - N/A   Clear
3:35 PM 82.4 °F 83.9 °F 64.4 °F 54% 30.04 in 10.0 mi SSE 10.4 mph - N/A   Clear
3:55 PM 82.4 °F 84.6 °F 66.2 °F 58% 30.03 in 10.0 mi SSE 10.4 mph - N/A   Clear
4:15 PM 80.6 °F 82.7 °F 66.2 °F 61% 30.03 in 10.0 mi SSE 11.5 mph - N/A   Clear
4:35 PM 80.6 °F 82.7 °F 66.2 °F 61% 30.04 in 10.0 mi South 9.2 mph - N/A   Clear
4:55 PM 80.6 °F 82.7 °F 66.2 °F 61% 30.04 in 10.0 mi SSE 10.4 mph - N/A   Clear
5:15 PM 78.8 °F - 66.2 °F 65% 30.04 in 10.0 mi South 9.2 mph 16.1 mph N/A   Clear
5:35 PM 78.8 °F - 66.2 °F 65% 30.04 in 10.0 mi South 5.8 mph - N/A   Clear
5:55 PM 77.0 °F - 68.0 °F 74% 30.05 in 10.0 mi South 8.1 mph - N/A   Partly Cloudy
6:15 PM 75.2 °F - 68.0 °F 78% 30.05 in 10.0 mi SSE 3.5 mph - N/A   Scattered Clouds
6:35 PM 75.2 °F - 68.0 °F 78% 30.05 in 10.0 mi SSE 4.6 mph - N/A   Mostly Cloudy
6:55 PM 73.4 °F - 68.0 °F 83% 30.06 in 10.0 mi SE 4.6 mph - N/A   Mostly Cloudy
7:15 PM 73.4 °F - 66.2 °F 78% 30.06 in 10.0 mi SSE 5.8 mph - N/A   Mostly Cloudy
7:35 PM 73.4 °F - 68.0 °F 83% 30.06 in 10.0 mi ESE 4.6 mph - N/A   Partly Cloudy
7:55 PM 71.6 °F - 68.0 °F 88% 30.06 in 10.0 mi ESE 3.5 mph - N/A   Clear
8:15 PM 71.6 °F - 66.2 °F 83% 30.06 in 10.0 mi ESE 4.6 mph - N/A   Clear
8:35 PM 71.6 °F - 66.2 °F 83% 30.07 in 10.0 mi ESE 5.8 mph - N/A   Clear
8:55 PM 69.8 °F - 66.2 °F 88% 30.07 in 10.0 mi East 5.8 mph - N/A   Clear
9:15 PM 69.8 °F - 66.2 °F 88% 30.07 in 10.0 mi East 5.8 mph - N/A   Clear
9:35 PM 69.8 °F - 66.2 °F 88% 30.07 in 10.0 mi East 6.9 mph - N/A   Clear
9:55 PM 69.8 °F - 66.2 °F 88% 30.07 in 10.0 mi ESE 6.9 mph - N/A   Clear
10:15 PM 69.8 °F - 66.2 °F 88% 30.07 in 10.0 mi East 5.8 mph - N/A   Clear
10:35 PM 69.8 °F - 66.2 °F 88% 30.07 in 10.0 mi ESE 5.8 mph - N/A   Clear
10:55 PM 69.8 °F - 66.2 °F 88% 30.07 in 10.0 mi East 5.8 mph - N/A   Clear
11:15 PM 69.8 °F - 66.2 °F 88% 30.07 in 10.0 mi East 5.8 mph - N/A   Clear
11:35 PM 69.8 °F - 66.2 °F 88% 30.07 in 10.0 mi East 6.9 mph - N/A   Clear
11:55 PM 69.8 °F - 66.2 °F 88% 30.06 in 10.0 mi East 5.8 mph - N/A   Clear